This is the latest recevied weather packets stored in our database for station/object AC1IX. If no packets are shown the sender has not sent any weather packets the latest 10 day(s).
| Time | Temp. | Humidity | Pressure | Rain* | Wind** | Luminosity | Snow |
|---|---|---|---|---|---|---|---|
| 1777560833 | 8.89° C | 99% | 1007.3 hPa | 3.05 mm | - | 110 W/m² | - |
| 1777560531 | 8.89° C | 99% | 1007.7 hPa | 4.32 mm | - | 89 W/m² | - |
| 1777560229 | 8.33° C | 99% | 1007.7 hPa | 3.05 mm | - | 83 W/m² | - |
| 1777559925 | 8.33° C | 99% | 1007.7 hPa | 1.78 mm | - | 50 W/m² | - |
| 1777559620 | 8.33° C | 99% | 1007.7 hPa | 1.78 mm | - | 63 W/m² | - |
| 1777559319 | 8.33° C | 99% | 1007.5 hPa | 0 mm | - | 49 W/m² | - |
| 1777559014 | 8.33° C | 99% | 1007.8 hPa | 0 mm | - | 46 W/m² | - |
| 1777558710 | 8.33° C | 99% | 1007.7 hPa | 0 mm | - | 32 W/m² | - |
| 1777558406 | 8.33° C | 99% | 1007.5 hPa | 0 mm | - | 32 W/m² | - |
| 1777558102 | 8.33° C | 99% | 1007.4 hPa | 0 mm | - | 32 W/m² | - |
| 1777557799 | 8.33° C | 99% | 1007.4 hPa | 0 mm | - | 39 W/m² | - |
| 1777557495 | 8.33° C | 99% | 1007.5 hPa | 0 mm | - | 36 W/m² | - |
| 1777557192 | 8.33° C | 99% | 1007.4 hPa | 0 mm | - | 27 W/m² | - |
| 1777556888 | 8.33° C | 99% | 1007.4 hPa | 0 mm | - | 39 W/m² | - |
| 1777556584 | 8.33° C | 99% | 1007.4 hPa | 0 mm | - | 32 W/m² | - |
| 1777556283 | 8.89° C | 99% | 1007.5 hPa | 0 mm | - | 38 W/m² | - |
| 1777555980 | 8.33° C | 99% | 1007.4 hPa | 0 mm | - | 61 W/m² | - |
| 1777555675 | 8.33° C | 99% | 1007.5 hPa | 0 mm | - | 82 W/m² | - |
| 1777555372 | 8.33° C | 99% | 1007.4 hPa | 0 mm | - | 61 W/m² | - |
| 1777555068 | 8.33° C | 99% | 1007.3 hPa | 0 mm | - | 80 W/m² | - |
| 1777554766 | 8.33° C | 99% | 1007.5 hPa | 0 mm | - | 67 W/m² | - |
| 1777554463 | 8.33° C | 99% | 1007.1 hPa | 0 mm | - | 50 W/m² | - |
| 1777554159 | 8.33° C | 99% | 1007.5 hPa | 0 mm | - | 49 W/m² | - |
| 1777553856 | 8.33° C | 99% | 1007.4 hPa | 0 mm | - | 62 W/m² | - |
| 1777553553 | 8.33° C | 99% | 1007.3 hPa | 0 mm | - | 58 W/m² | - |
* Rain latest hour (hover to see other rain measurements)
** Current wind speed in m/s (hover to see current wind gust speed)